一网星座-0502星 (ONEWEB-0502 )

导读

ONEWEB-0502是英国一网(OneWeb)卫星星座的组网卫星,于2022年10月22日发射入轨。单星质量约147.5千克,运行在高度1200公里的近地轨道,配备Ku/Ka波段天线,依托离子电推进完成轨道提升。 作为OneWeb全球低轨卫星互联网星座的组成部分,它可为全球提供高速低延迟通信服务,支持政府、商业及应急场景的网络接入,是英国低轨通信布局的重要一环,也和星链形成差异化竞争。

基本信息
目录编号:
54120
目录名称:
ONEWEB-0502
国际标识:
2022-138H
轨道中心:
EARTH
卫星名称:
一网星座-0502星
卫星全名:
一网星座-0502星 (ONEWEB-0502 )
卫星状态:
在轨 (已飞行1424 天)
发射日期:
2022-10-22 UTC
国别 :
英国 (GB)
星等 :
--
该卫星已列入 空间交会检测服务 Space Conjunction Data Service (SCDS) ,当前飞行风险评估等级: 无高风险
轨道信息
数据来源 国际轨道数据 AOE轨道数据
星历时间 2026-09-15T09:41:46+0800
21小时前
查看轨道信息
2026-09-15T23:00:00+0800
8小时前
查看轨道信息
半长轴 7563.902km 7563.89km
偏心率 0.0002107 0.0003142
轨道倾角 87.912° 87.915°
近地点辐角 87.854° 67.404°
升交点赤经 287.054° 286.945°
平近点角 272.284° 44.893°
近地点 1184.171km 1183.376km
远地点 1187.359km 1188.13km
周期 109.114分钟 109.113分钟
每日圈数 13.197267 13.197297
详细信息
平衡模式:
三轴稳定
覆盖范围:
全球
运营商:
一网卫星公司
运营商所在国:
英国
制造商(研发单位):
一网卫星公司
制造商所在国:
英国
使用方式:
暂无
卫星简介
OneWeb卫星网络由648颗重约125公斤的微型卫星组成,运行在1200公里的轨道上。 每颗卫星都能够提供至少每秒8千兆位的吞吐量,以使用其高吞吐量的Ku频段有效载荷为家庭和移动平台提供互联网接入。该卫星仍在工作。
2D轨道图
3D轨道图
轨道高度分析图
轨道倾角分析图
轨道综合分析图
查看轨道综合分析图
与全量物体交会距离演化趋势 订阅飞行安全评估服务
与全量物体交会风险概率演化趋势 订阅飞行安全评估服务